User: anonymous   Login
Location: Unspecified
(0.0000°N, 0.0000°E)
Time: 02:12:40
(UTC+00:00)
Language:

STARLINK-6140 - Orbit

View from above orbital plane
View from above orbital plane
View from above satellite
View from above satellite

Ground track
Ground track

The orbit is defined by the following mean orbital elements,

1 57111U          26145.45224078 +.00000000 +00000-0 +29968-4 0 00006
2 57111  43.0021 207.9159 0001289 270.5944  89.4761 15.27577190    00
Epoch (UTC): 25 May 2026 10:51:13
Eccentricity: 0.0001289
inclination: 43.0021°
perigee height: 482 km
apogee height: 484 km
right ascension of ascending node: 207.9159°
argument of perigee: 270.5944°
revolutions per day: 15.27577190
mean anomaly at epoch: 89.4761°

The dashed part of the orbit path shows where the satellite is in the earth's shadow,  

DLR